Regional Weather Roundup
Issued by NWS New Orleans/Baton Rouge, LA

Home | Current Version | Previous Version | Text Only | Print | Product List | Glossary On
Versions: 1 2 3 4 5 6 7 8 9 10 11 12 13 14 15 16 17 18 19 20 21 22 23 24 25 26 27 28 29 30 31 32 33 34 35 36 37 38 39 40 41 42 43 44 45 46 47 48 49 50
000
ASUS44 KLIX 281513
RWRLIX
NEW ORLEANS REGIONAL WEATHER ROUNDUP
NATIONAL WEATHER SERVICE NEW ORLEANS LA
1000 AM CDT TUE MAR 28 2017

NOTE: "FAIR" INDICATES FEW OR NO CLOUDS BELOW 12,000 FEET WITH NO
      SIGNIFICANT WEATHER AND/OR OBSTRUCTIONS TO VISIBILITY.
      SKY/WX - SKY CONDITION AND SIGNIFICANT WEATHER.
      TMP - AIR TEMPERATURE.     DP    - DEWPOINT TEMPERATURE.
      RH  - RELATIVE HUMIDITY.   PRES  - PRESSURE.
      HI  - HEAT INDEX.          WCI   - WIND CHILL INDEX.

*  THESE STATIONS ARE NOT NWS OR FAA STATIONS AND ARE NOT UNDER
   NWS QUALITY CONTROL.

LAZ038-040-048-061>063-065>067-069-281600-
SOUTHEAST LOUISIANA

CITY           SKY/WX    TMP DP  RH WIND       PRES   REMARKS
N.O. INTL ARPT PTSUNNY   75  70  84 S7        30.03R
N.O. LAKEFRONT MOSUNNY   77  70  79 S10       30.04R
N.O. DOWNTOWN*   N/A     77  68  73 SE8       30.04R
RESERVE*       CLOUDY    77  70  77 S9        30.03R
SLIDELL        PTSUNNY   76  68  76 SW8       30.03R
BATON ROUGE    PTSUNNY   78  69  73 SE10      30.00S
BOOTHVILLE     MOSUNNY   75  72  90 S6        30.05R
BELLE CHASSE   PTSUNNY   77  70  79 SW7       30.03R
BOGALUSA*      NOT AVBL
GALLIANO*      PTSUNNY   77  68  73 SE7       30.03R
NEW ROADS*       N/A     75  68  80 S9        30.00S
GONZALES*        N/A     73  71  93 S8        30.01R
HAMMOND*       CLOUDY    73  70  88 S7        30.03R
HOUMA*         PTSUNNY   75  70  83 S12       30.03R
PORT FOURCHON* PTSUNNY   75  70  83 SE7       30.03R

$$

MSZ070-080>082-281600-
SOUTHERN MISSISSIPPI

CITY           SKY/WX    TMP DP  RH WIND       PRES   REMARKS
MCCOMB         CLOUDY    74  67  78 S8        30.02R
GULFPORT       PTSUNNY   77  68  73 SW8       30.03R
BILOXI         MOSUNNY   76  70  83 S9        30.04R
PASCAGOULA     MOSUNNY   74  67  78 VRB5      30.04R
STENNIS ARPT*    N/A     73  64  73 S5        30.04R

$$

COASTAL OBSERVATIONS
LAKE AND NEARSHORE STATIONS

STATION/POSITION TIME  TEMP    WIND        PRES    WAVE
                       AIR SEA DIR/SP/G            HT/PER
                 (UTC) (F)     (DEG/KT/KT) (MB)    (FT/S)
PASCAGOULA       1448   75     200/  6/  8 1016.9
WAVELAND YACHT   1442   74 75  180/  7/ 11 1016.7
GRAND ISLE       1448   74 75  150/  5/  7 1016.8
SOUTHWEST PASS   1448          130/  5/  6   N/A
NEW CANAL        1448   76 72  190/  5/  7 1016.8
SHELL BEACH      1442   75 75  180/  7/ 10 1017.1

OFFSHORE STATIONS

STATION/POSITION TIME  TEMP    WIND        PRES    WAVE
                       AIR SEA DIR/SP/G            HT/PER
                 (UTC) (F)     (DEG/KT/KT) (MB)    (FT/S)
64 S DAUPHIN ISL 1450   73 73  160/  8/  8 1017.6    3/ 6

$$




USA.gov is the U.S. government's official web portal to all federal, state and local government web resources and services.